Location: ????
(30.1475°N, 31.1342°E)
Time: 15:30:43
(UTC+00:00)

Cosmos 1605 Rocket - Pass Details

Date: 11 April 2023
Orbit: 943 x 1006 km, 82.9° (Epoch: 28 May)

Event Time Altitude Azimuth Distance (km) Brightness Sun altitude
Rises 01:12:23 0° 129° (SE) 3,706 7.3 -29.4°
Reaches altitude 10° 01:17:28 10° 94° (E) 2,772 7.0 -28.5°
Maximum altitude 01:18:48 11° 82° (E) 2,725 7.1 -28.2°
Drops below altitude 10° 01:20:08 10° 69° (ENE) 2,779 7.3 -28.0°
Sets 01:25:13 0° 35° (NE) 3,737 8.0 -27.0°
